LA9UTA-13 Weather Reports


time (UTC)temp
C
wind
direction
speed
KPH
gust
KPH
rain 1hr
cm
rain 24hr
cm
rain mn
cm
humidity
%
barometer
mb
20260507095802 11 136 0.0 1.6 0.00 0.00 0.00 29 1016.3
20260507093802 12 336 4.8 6.4 0.00 0.00 0.00 29 1016.2
20260507091801 11 97 0.0 1.6 0.00 0.00 0.00 31 1016.3
20260507083802 11 162 1.6 3.2 0.00 0.00 0.00 36 1017.3
20260507081802 11 159 0.0 0.0 0.00 0.00 0.00 35 1016.3
20260507080809 11 154 0.0 1.6 0.00 0.00 0.00 33 1016.3
20260507075802 11 154 0.0 1.6 0.00 0.00 0.00 33 1016.3
20260507073802 9 138 1.6 1.6 0.00 0.00 0.00 38 1016.5
20260507071802 9 128 9.7 11.3 0.00 0.00 0.00 39 1016.5
20260507065802 8 145 4.8 6.4 0.00 0.00 0.00 40 1016.6
20260507063802 6 106 1.6 1.6 0.00 0.00 0.00 44 1016.8
20260507061802 7 152 3.2 4.8 0.00 0.00 0.00 45 1016.7
20260507055802 6 117 1.6 1.6 0.00 0.00 0.00 48 1016.8
20260507054002 6 153 3.2 3.2 0.00 0.00 0.00 48 1016.8
20260507053801 6 153 3.2 3.2 0.00 0.00 0.00 48 1016.8
20260507051802 4 131 0.0 0.0 0.00 0.00 0.00 48 1016.0
20260507045801 2 255 3.2 4.8 0.00 0.00 0.00 52 1016.2
20260507043801 2 123 0.0 1.6 0.00 0.00 0.00 53 1016.2
20260507041803 1 147 0.0 0.0 0.00 0.00 0.00 58 1016.3
20260507040702 1 163 0.0 0.0 0.00 0.00 0.00 59 1016.4
20260507035802 1 163 0.0 0.0 0.00 0.00 0.00 59 1016.4
20260507035156 1 144 0.0 1.6 0.00 0.00 0.00 56 1016.3
20260507033802 1 144 0.0 1.6 0.00 0.00 0.00 56 1016.3
20260507031802 0 173 0.0 0.0 0.00 0.00 0.00 61 1016.4
20260507025801 1 143 4.8 6.4 0.00 0.00 0.00 53 1016.3
20260507021802 0 169 1.6 1.6 0.00 0.00 0.00 64 1015.4
20260507015803 1 148 0.0 0.0 0.00 0.00 0.00 55 1015.3
20260507013801 1 325 1.6 1.6 0.00 0.00 0.00 53 1015.3
20260507011802 1 178 1.6 1.6 0.00 0.00 0.00 58 1015.4
20260507005802 1 173 3.2 3.2 0.00 0.00 0.00 58 1015.4
20260507005125 0 182 1.6 1.6 0.00 0.00 0.00 66 1015.4
20260507003802 0 182 1.6 1.6 0.00 0.00 0.00 66 1015.4
20260507001801 0 183 1.6 1.6 0.00 0.00 0.00 62 1015.4
20260506235801 0 174 1.6 1.6 0.00 0.00 0.00 62 1015.4
20260506233802 1 164 3.2 3.2 0.00 0.00 0.00 56 1015.3
20260506233614 2 173 0.0 1.6 0.00 0.00 0.00 48 1014.1
20260506231801 1 81 3.2 3.2 0.00 0.00 0.00 54 1015.3
20260506225802 2 173 0.0 0.0 0.00 0.00 0.00 51 1014.1
20260506223801 2 173 0.0 1.6 0.00 0.00 0.00 48 1014.1
20260506221802 3 143 0.0 0.0 0.00 0.00 0.00 45 1014.0
20260506215801 3 190 1.6 3.2 0.00 0.00 0.00 46 1014.0
20260506215054 3 152 1.6 1.6 0.00 0.00 0.00 46 1014.0
20260506213802 3 152 1.6 1.6 0.00 0.00 0.00 46 1014.0
20260506211801 3 163 1.6 1.6 0.00 0.00 0.00 52 1013.0
20260506205801 3 168 0.0 0.0 0.00 0.00 0.00 53 1013.0
20260506205044 3 179 0.0 0.0 0.00 0.00 0.00 52 1014.0
20260506203802 3 179 0.0 0.0 0.00 0.00 0.00 52 1014.0
20260506201802 4 180 0.0 1.6 0.00 0.00 0.00 50 1012.9
20260506195801 5 185 1.6 3.2 0.00 0.00 0.00 46 1012.8
20260506195030 6 187 3.2 3.2 0.00 0.00 0.00 41 1012.7
20260506193802 6 187 3.2 3.2 0.00 0.00 0.00 41 1012.7
20260506191802 6 261 4.8 4.8 0.00 0.00 0.00 44 1012.7
20260506191220 8 170 0.0 0.0 0.00 0.00 0.00 36 1012.5
20260506185801 8 170 0.0 0.0 0.00 0.00 0.00 36 1012.5
20260506185022 9 198 1.6 1.6 0.00 0.00 0.00 32 1012.4
20260506183801 9 198 1.6 1.6 0.00 0.00 0.00 32 1012.4
20260506181801 9 335 3.2 4.8 0.00 0.00 0.00 31 1011.4
20260506175801 10 191 4.8 4.8 0.00 0.00 0.00 30 1011.3
20260506173802 11 182 3.2 4.8 0.00 0.00 0.00 26 1011.2
20260506171801 10 247 6.4 6.4 0.00 0.00 0.00 27 1011.3
20260506165802 11 161 1.6 1.6 0.00 0.00 0.00 27 1011.2
20260506163802 12 154 0.0 0.0 0.00 0.00 0.00 27 1011.1
20260506161801 10 174 1.6 1.6 0.00 0.00 0.00 30 1011.3
20260506155802 10 173 1.6 1.6 0.00 0.00 0.00 28 1011.3
20260506153801 10 312 4.8 4.8 0.00 0.00 0.00 27 1011.3
20260506151801 10 227 4.8 4.8 0.00 0.00 0.00 29 1011.3
20260506145802 11 249 9.7 14.5 0.00 0.00 0.00 26 1011.2
20260506143802 10 136 8.0 14.5 0.00 0.00 0.00 25 1011.4
20260506141801 12 205 1.6 3.2 0.00 0.00 0.00 22 1011.1
20260506135801 11 254 8.0 12.9 0.00 0.00 0.00 23 1011.2
20260506133801 11 199 3.2 4.8 0.00 0.00 0.00 24 1012.2
20260506131801 12 160 1.6 3.2 0.00 0.00 0.00 26 1011.1
20260506125801 11 278 3.2 4.8 0.00 0.00 0.00 27 1012.2
20260506123801 11 158 6.4 6.4 0.00 0.00 0.00 28 1012.2
20260506121802 11 124 6.4 9.7 0.00 0.00 0.00 29 1012.2
20260506115801 11 179 3.2 4.8 0.00 0.00 0.00 29 1012.2
20260506113801 10 227 6.4 12.9 0.00 0.00 0.00 31 1012.3
20260506111801 10 152 0.0 1.6 0.00 0.00 0.00 31 1012.3
20260506105801 8 136 4.8 6.4 0.00 0.00 0.00 34 1012.4
20260506103802 10 114 3.2 4.8 0.00 0.00 0.00 30 1012.3
20260506101802 11 184 1.6 3.2 0.00 0.00 0.00 31 1012.2